K5TWC Weather Reports


Display with metric or nautical units.
time (UTC)temp
F
wind
direction
speed
MPH
gust
MPH
rain 1hr
in
rain 24hr
in
rain mn
in
humidity
%
barometer
mb
20260906033503 85 183 0.0 3.0 0.00 0.00 0.00 74 1013.5
20260906033009 85 209 0.0 3.0 0.00 0.00 0.00 73 1013.4
20260906032503 85 211 0.0 1.0 0.00 0.00 0.00 73 1013.5
20260906032004 85 211 0.0 1.0 0.00 0.00 0.00 73 1013.5
20260906031528 85 211 0.0 4.0 0.00 0.00 0.00 73 1013.5
20260906031008 85 211 0.0 4.0 0.00 0.00 0.00 72 1013.4
20260906030511 86 211 0.0 2.0 0.00 0.00 0.00 72 1013.4
20260906030020 86 217 0.0 3.0 0.00 0.00 0.00 72 1013.4
20260906025514 86 217 0.0 3.0 0.00 0.00 0.00 72 1013.3
20260906025014 86 194 0.0 3.0 0.00 0.00 0.00 72 1013.4
20260906024528 86 200 0.0 4.0 0.00 0.00 0.00 71 1013.4
20260906024014 86 192 0.0 6.0 0.00 0.00 0.00 71 1013.3
20260906023503 86 188 0.0 6.0 0.00 0.00 0.00 71 1013.2
20260906023008 86 201 0.0 4.0 0.00 0.00 0.00 70 1013.1
20260906022505 86 193 0.0 4.0 0.00 0.00 0.00 70 1013.1
20260906022004 87 166 0.0 6.0 0.00 0.00 0.00 70 1013.1
20260906021511 87 165 0.0 7.0 0.00 0.00 0.00 70 1012.9
20260906021003 87 202 1.0 7.0 0.00 0.00 0.00 69 1012.9
20260906020506 87 190 0.0 4.0 0.00 0.00 0.00 69 1012.9
20260906020018 87 196 0.0 3.0 0.00 0.00 0.00 68 1012.8
20260906015507 87 190 0.0 7.0 0.00 0.00 0.00 68 1012.7
20260906015011 87 206 1.0 8.0 0.00 0.00 0.00 68 1012.7
20260906014525 88 169 0.0 8.0 0.00 0.00 0.00 67 1012.7
20260906014014 88 155 1.0 6.0 0.00 0.00 0.00 67 1012.6
20260906013510 88 199 0.0 12.0 0.00 0.00 0.00 66 1012.5
20260906013026 88 180 0.0 12.0 0.00 0.00 0.00 66 1012.4
20260906012503 88 167 4.0 12.0 0.00 0.00 0.00 66 1012.3
20260906012002 88 171 2.0 11.0 0.00 0.00 0.00 65 1012.2
20260906011510 89 182 4.0 10.0 0.00 0.00 0.00 64 1012.1
20260906011003 89 167 2.0 10.0 0.00 0.00 0.00 64 1012.0
20260906010503 89 180 2.0 9.0 0.00 0.00 0.00 63 1012.0
20260906010013 90 144 2.0 12.0 0.00 0.00 0.00 62 1011.9
20260906005509 90 169 5.0 14.0 0.00 0.00 0.00 61 1011.9
20260906005008 91 138 5.0 14.0 0.00 0.00 0.00 60 1011.8
20260906004519 92 171 3.0 12.0 0.00 0.00 0.00 59 1011.9
20260906004009 93 167 5.0 15.0 0.00 0.00 0.00 58 1011.8
20260906003512 93 216 6.0 15.0 0.00 0.00 0.00 55 1011.8
20260906003024 94 130 2.0 14.0 0.00 0.00 0.00 55 1011.8
20260906002511 95 147 4.0 14.0 0.00 0.00 0.00 53 1011.8
20260906002011 95 150 5.0 12.0 0.00 0.00 0.00 54 1011.7
20260906001538 96 158 4.0 10.0 0.00 0.00 0.00 53 1011.7
20260906001005 97 192 3.0 14.0 0.00 0.00 0.00 52 1011.6
20260906000503 97 152 5.0 14.0 0.00 0.00 0.00 50 1011.5
20260906000013 98 108 6.0 13.0 0.00 0.00 0.00 49 1011.5
20260905235506 99 166 2.0 6.0 0.00 0.00 0.00 47 1011.4
20260905235009 99 165 0.0 5.0 0.00 0.00 0.00 45 1011.4
20260905234514 100 163 1.0 5.0 0.00 0.00 0.00 45 1011.2
20260905234007 100 178 0.0 4.0 0.00 0.00 0.00 44 1011.2
20260905233510 100 178 0.0 5.0 0.00 0.00 0.00 43 1011.1
20260905233021 101 193 1.0 5.0 0.00 0.00 0.00 44 1011.1
20260905232509 101 208 0.0 3.0 0.00 0.00 0.00 43 1011.1
20260905232013 101 208 0.0 3.0 0.00 0.00 0.00 43 1011.1
20260905231534 101 211 0.0 3.0 0.00 0.00 0.00 42 1011.2
20260905231016 101 215 0.0 4.0 0.00 0.00 0.00 43 1011.2
20260905230512 101 216 0.0 4.0 0.00 0.00 0.00 44 1011.2
20260905230027 101 196 1.0 3.0 0.00 0.00 0.00 43 1011.2
20260905225502 101 190 0.0 3.0 0.00 0.00 0.00 43 1011.2
20260905225004 101 209 0.0 3.0 0.00 0.00 0.00 43 1011.2
20260905224513 101 209 0.0 3.0 0.00 0.00 0.00 43 1011.2
20260905224010 100 203 0.0 3.0 0.00 0.00 0.00 44 1011.2
20260905223508 100 205 0.0 5.0 0.00 0.00 0.00 45 1011.1
20260905223018 100 208 1.0 5.0 0.00 0.00 0.00 45 1011.1
20260905222508 99 157 0.0 4.0 0.00 0.00 0.00 46 1011.1
20260905222009 99 143 0.0 5.0 0.00 0.00 0.00 45 1011.2
20260905221523 99 142 2.0 5.0 0.00 0.00 0.00 45 1011.1
20260905221011 100 153 1.0 3.0 0.00 0.00 0.00 45 1011.2
20260905220515 100 153 0.0 5.0 0.00 0.00 0.00 45 1011.2
20260905220031 100 153 0.0 6.0 0.00 0.00 0.00 44 1011.3
20260905215512 100 164 1.0 6.0 0.00 0.00 0.00 45 1011.4
20260905215013 100 163 0.0 6.0 0.00 0.00 0.00 46 1011.4
20260905214529 100 163 1.0 8.0 0.00 0.00 0.00 46 1011.5
20260905214013 99 190 1.0 9.0 0.00 0.00 0.00 47 1011.4
20260905213506 99 163 2.0 9.0 0.00 0.00 0.00 47 1011.5
20260905213015 99 177 1.0 9.0 0.00 0.00 0.00 47 1011.6
20260905212508 99 135 3.0 9.0 0.00 0.00 0.00 46 1011.6
20260905212007 99 136 0.0 7.0 0.00 0.00 0.00 47 1011.6
20260905211520 99 116 1.0 12.0 0.00 0.00 0.00 46 1011.7
20260905211010 99 120 4.0 12.0 0.00 0.00 0.00 46 1011.7
20260905210510 100 144 1.0 8.0 0.00 0.00 0.00 45 1011.8
20260905210026 101 132 4.0 9.0 0.00 0.00 0.00 44 1011.8
20260905205512 101 164 2.0 9.0 0.00 0.00 0.00 44 1011.9
20260905205012 100 221 0.0 6.0 0.00 0.00 0.00 45 1012.0
20260905204526 99 155 0.0 7.0 0.00 0.00 0.00 46 1012.1
20260905204013 99 122 2.0 8.0 0.00 0.00 0.00 46 1012.2
20260905203515 99 121 2.0 8.0 0.00 0.00 0.00 46 1012.2
20260905203032 100 104 1.0 8.0 0.00 0.00 0.00 47 1012.3
20260905202508 99 183 0.0 10.0 0.00 0.00 0.00 47 1012.3
20260905202004 99 130 2.0 10.0 0.00 0.00 0.00 47 1012.5
20260905201516 99 145 1.0 10.0 0.00 0.00 0.00 48 1012.5
20260905201007 98 105 3.0 8.0 0.00 0.00 0.00 48 1012.6
20260905200508 98 123 1.0 11.0 0.00 0.00 0.00 49 1012.7
20260905200023 98 113 6.0 11.0 0.00 0.00 0.00 48 1012.8
20260905195509 98 121 2.0 7.0 0.00 0.00 0.00 48 1012.8
20260905195011 100 93 3.0 7.0 0.00 0.00 0.00 46 1012.9
20260905194525 101 182 1.0 6.0 0.00 0.00 0.00 46 1013.1
20260905194011 100 182 0.0 6.0 0.00 0.00 0.00 48 1013.1
20260905193503 100 190 0.0 5.0 0.00 0.00 0.00 48 1013.2
20260905193004 100 190 0.0 5.0 0.00 0.00 0.00 47 1013.3
20260905192508 100 228 0.0 5.0 0.00 0.00 0.00 47 1013.4
20260905192006 100 194 0.0 5.0 0.00 0.00 0.00 47 1013.5
20260905191510 99 195 0.0 5.0 0.00 0.00 0.00 48 1013.5
20260905191004 99 217 1.0 5.0 0.00 0.00 0.00 48 1013.6
20260905190508 98 206 0.0 5.0 0.00 0.00 0.00 49 1013.7
20260905190027 98 248 0.0 8.0 0.00 0.00 0.00 49 1013.7
20260905185507 98 205 0.0 8.0 0.00 0.00 0.00 49 1013.8
20260905185013 98 161 2.0 6.0 0.00 0.00 0.00 50 1013.9
20260905184525 97 170 0.0 6.0 0.00 0.00 0.00 52 1014.0
20260905184012 97 187 1.0 9.0 0.00 0.00 0.00 50 1014.1
20260905183509 97 132 3.0 9.0 0.00 0.00 0.00 50 1014.2
20260905183025 97 134 2.0 9.0 0.00 0.00 0.00 50 1014.4
20260905182512 97 166 1.0 9.0 0.00 0.00 0.00 50 1014.4
20260905182004 97 117 4.0 9.0 0.00 0.00 0.00 51 1014.5
20260905181510 97 157 0.0 5.0 0.00 0.00 0.00 50 1014.6
20260905181009 98 198 0.0 5.0 0.00 0.00 0.00 49 1014.6
20260905180504 98 198 0.0 5.0 0.00 0.00 0.00 49 1014.7
20260905180012 98 226 0.0 7.0 0.00 0.00 0.00 50 1014.9
20260905175507 97 231 0.0 7.0 0.00 0.00 0.00 49 1014.9
20260905175008 97 229 0.0 6.0 0.00 0.00 0.00 49 1015.0
20260905174521 97 185 0.0 6.0 0.00 0.00 0.00 51 1015.0
20260905174010 96 245 0.0 6.0 0.00 0.00 0.00 51 1015.1
20260905173510 96 164 1.0 11.0 0.00 0.00 0.00 49 1015.2
20260905173026 96 234 1.0 11.0 0.00 0.00 0.00 51 1015.2
20260905172514 96 140 0.0 9.0 0.00 0.00 0.00 50 1015.2
20260905172014 95 159 2.0 9.0 0.00 0.00 0.00 50 1015.3
20260905171540 94 164 0.0 8.0 0.00 0.00 0.00 53 1015.3
20260905171013 94 98 1.0 8.0 0.00 0.00 0.00 53 1015.3
20260905170504 94 117 3.0 9.0 0.00 0.00 0.00 54 1015.4
20260905170012 95 126 4.0 9.0 0.00 0.00 0.00 53 1015.5
20260905165505 96 128 3.0 9.0 0.00 0.00 0.00 52 1015.5
20260905165007 96 180 0.0 7.0 0.00 0.00 0.00 54 1015.4
20260905164517 96 144 2.0 7.0 0.00 0.00 0.00 54 1015.5
20260905164008 96 161 2.0 8.0 0.00 0.00 0.00 55 1015.5
20260905163510 95 163 0.0 8.0 0.00 0.00 0.00 56 1015.6
20260905163023 96 143 0.0 7.0 0.00 0.00 0.00 56 1015.6
20260905162510 96 148 1.0 7.0 0.00 0.00 0.00 56 1015.5
20260905162013 96 159 0.0 6.0 0.00 0.00 0.00 57 1015.5
20260905161528 95 162 0.0 8.0 0.00 0.00 0.00 58 1015.5
20260905161011 94 185 1.0 8.0 0.00 0.00 0.00 59 1015.4
20260905160515 94 155 2.0 8.0 0.00 0.00 0.00 60 1015.5
20260905160046 93 113 0.0 8.0 0.00 0.00 0.00 61 1015.5
20260905155514 93 151 0.0 6.0 0.00 0.00 0.00 62 1015.5
20260905155002 92 84 0.0 4.0 0.00 0.00 0.00 60 1015.5
20260905154512 92 282 0.0 6.0 0.00 0.00 0.00 60 1015.5
20260905154006 92 281 1.0 7.0 0.00 0.00 0.00 60 1015.5
20260905153506 92 254 0.0 7.0 0.00 0.00 0.00 61 1015.5
20260905153022 92 252 0.0 5.0 0.00 0.00 0.00 62 1015.5
20260905152511 91 252 2.0 8.0 0.00 0.00 0.00 63 1015.5
20260905152016 90 252 2.0 8.0 0.00 0.00 0.00 63 1015.5
20260905151525 90 247 0.0 7.0 0.00 0.00 0.00 65 1015.5
20260905151011 89 245 0.0 7.0 0.00 0.00 0.00 65 1015.4
20260905150512 89 225 0.0 7.0 0.00 0.00 0.00 66 1015.4
20260905150028 89 221 1.0 7.0 0.00 0.00 0.00 66 1015.4
20260905145519 90 263 1.0 6.0 0.00 0.00 0.00 65 1015.3
20260905145014 90 253 1.0 5.0 0.00 0.00 0.00 65 1015.3
20260905144532 89 230 0.0 7.0 0.00 0.00 0.00 67 1015.3
20260905144018 88 236 0.0 7.0 0.00 0.00 0.00 67 1015.2
20260905143504 88 246 0.0 7.0 0.00 0.00 0.00 68 1015.2
20260905143015 88 245 1.0 7.0 0.00 0.00 0.00 67 1015.2
20260905142508 88 248 0.0 7.0 0.00 0.00 0.00 68 1015.2
20260905142010 89 242 2.0 7.0 0.00 0.00 0.00 66 1015.3
20260905141520 90 234 0.0 5.0 0.00 0.00 0.00 65 1015.3
20260905141011 90 233 2.0 5.0 0.00 0.00 0.00 64 1015.3
20260905140514 91 212 0.0 0.0 0.00 0.00 0.00 65 1015.3
20260905140028 90 211 0.0 0.0 0.00 0.00 0.00 65 1015.4
20260905135513 90 211 0.0 0.0 0.00 0.00 0.00 67 1015.3
20260905135012 89 211 0.0 0.0 0.00 0.00 0.00 67 1015.2
20260905134530 89 211 0.0 0.0 0.00 0.00 0.00 68 1015.1
20260905134014 88 211 0.0 0.0 0.00 0.00 0.00 69 1015.0
20260905133515 88 211 0.0 0.0 0.00 0.00 0.00 70 1014.9
20260905133030 87 211 0.0 0.0 0.00 0.00 0.00 72 1015.0
20260905132514 86 211 0.0 0.0 0.00 0.00 0.00 74 1014.9
20260905132008 84 211 0.0 0.0 0.00 0.00 0.00 76 1015.0
20260905131518 83 211 0.0 2.0 0.00 0.00 0.00 78 1015.0
20260905131008 82 211 0.0 2.0 0.00 0.00 0.00 79 1014.9
20260905130512 81 211 0.0 1.0 0.00 0.00 0.00 82 1014.9
20260905130025 80 211 0.0 0.0 0.00 0.00 0.00 83 1014.8
20260905125512 79 211 0.0 0.0 0.00 0.00 0.00 83 1014.8
20260905125012 79 211 0.0 1.0 0.00 0.00 0.00 82 1014.6
20260905124526 79 211 0.0 2.0 0.00 0.00 0.00 82 1014.5
20260905124014 79 211 0.0 2.0 0.00 0.00 0.00 82 1014.4
20260905123513 78 211 0.0 3.0 0.00 0.00 0.00 82 1014.4
20260905123028 78 211 0.0 3.0 0.00 0.00 0.00 83 1014.3
20260905122518 78 212 0.0 1.0 0.00 0.00 0.00 83 1014.4
20260905122020 77 212 0.0 0.0 0.00 0.00 0.00 83 1014.5
20260905121531 77 212 0.0 0.0 0.00 0.00 0.00 83 1014.5
20260905121019 77 212 0.0 0.0 0.00 0.00 0.00 83 1014.5
20260905120508 77 212 0.0 0.0 0.00 0.00 0.00 83 1014.5
20260905120034 77 212 0.0 0.0 0.00 0.00 0.00 83 1014.5
20260905115511 77 212 0.0 0.0 0.00 0.00 0.00 83 1014.5
20260905115012 77 212 0.0 0.0 0.00 0.00 0.00 83 1014.5
20260905114527 77 212 0.0 0.0 0.00 0.00 0.00 83 1014.4
20260905114011 77 212 0.0 0.0 0.00 0.00 0.00 83 1014.5
20260905113516 77 212 0.0 0.0 0.00 0.00 0.00 82 1014.4
20260905113030 78 212 0.0 0.0 0.00 0.00 0.00 81 1014.5
20260905112513 78 212 0.0 0.0 0.00 0.00 0.00 81 1014.5
20260905112016 78 212 0.0 0.0 0.00 0.00 0.00 81 1014.6
20260905111558 78 212 0.0 0.0 0.00 0.00 0.00 81 1014.5
20260905111014 78 212 0.0 0.0 0.00 0.00 0.00 81 1014.5
20260905110516 78 212 0.0 0.0 0.00 0.00 0.00 80 1014.4
20260905110033 78 212 0.0 0.0 0.00 0.00 0.00 80 1014.4
20260905105519 78 212 0.0 0.0 0.00 0.00 0.00 80 1014.4
20260905105007 79 212 0.0 0.0 0.00 0.00 0.00 80 1014.4
20260905104520 79 212 0.0 0.0 0.00 0.00 0.00 80 1014.3
20260905104010 79 212 0.0 0.0 0.00 0.00 0.00 79 1014.3
20260905103514 79 212 0.0 0.0 0.00 0.00 0.00 79 1014.4
20260905103031 79 212 0.0 0.0 0.00 0.00 0.00 79 1014.4
20260905102513 79 212 0.0 0.0 0.00 0.00 0.00 78 1014.4
20260905102003 79 212 0.0 0.0 0.00 0.00 0.00 78 1014.4
20260905101505 79 212 0.0 1.0 0.00 0.00 0.00 78 1014.4
20260905101002 79 212 0.0 1.0 0.00 0.00 0.00 79 1014.3
20260905100504 79 212 0.0 0.0 0.00 0.00 0.00 79 1014.3
20260905100006 80 212 0.0 0.0 0.00 0.00 0.00 79 1014.2
20260905095503 79 212 0.0 0.0 0.00 0.00 0.00 80 1014.1
20260905095005 79 212 0.0 0.0 0.00 0.00 0.00 80 1014.1
20260905094504 79 212 0.0 0.0 0.00 0.00 0.00 80 1014.0
20260905094005 80 212 0.0 0.0 0.00 0.00 0.00 80 1014.1
20260905093504 80 212 0.0 0.0 0.00 0.00 0.00 79 1014.0
20260905093004 80 212 0.0 0.0 0.00 0.00 0.00 79 1014.1
20260905092503 80 212 0.0 0.0 0.00 0.00 0.00 79 1014.1
20260905092003 80 212 0.0 0.0 0.00 0.00 0.00 79 1014.0
20260905091505 80 212 0.0 0.0 0.00 0.00 0.00 79 1014.0
20260905091004 80 212 0.0 0.0 0.00 0.00 0.00 78 1013.9
20260905090503 80 212 0.0 0.0 0.00 0.00 0.00 78 1014.0
20260905090008 80 212 0.0 0.0 0.00 0.00 0.00 78 1013.9
20260905085506 81 212 0.0 0.0 0.00 0.00 0.00 78 1013.8
20260905085004 81 212 0.0 0.0 0.00 0.00 0.00 77 1013.7
20260905084504 81 212 0.0 0.0 0.00 0.00 0.00 77 1013.6
20260905084003 81 212 0.0 0.0 0.00 0.00 0.00 77 1013.6
20260905083507 81 212 0.0 0.0 0.00 0.00 0.00 77 1013.6
20260905083008 81 212 0.0 0.0 0.00 0.00 0.00 77 1013.6
20260905082503 81 212 0.0 2.0 0.00 0.00 0.00 76 1013.6
20260905082005 81 212 0.0 2.0 0.00 0.00 0.00 76 1013.6
20260905081505 82 212 0.0 0.0 0.00 0.00 0.00 76 1013.6
20260905081003 82 212 0.0 0.0 0.00 0.00 0.00 75 1013.6
20260905080508 82 212 0.0 0.0 0.00 0.00 0.00 75 1013.6
20260905080008 82 212 0.0 1.0 0.00 0.00 0.00 74 1013.6
20260905075504 82 212 0.0 1.0 0.00 0.00 0.00 74 1013.7
20260905075006 82 212 0.0 1.0 0.00 0.00 0.00 74 1013.6
20260905074507 82 212 0.0 1.0 0.00 0.00 0.00 74 1013.6
20260905074003 83 213 0.0 1.0 0.00 0.00 0.00 74 1013.7
20260905073504 83 215 0.0 2.0 0.00 0.00 0.00 74 1013.8
20260905073008 83 215 0.0 2.0 0.00 0.00 0.00 74 1013.8
20260905072504 83 215 0.0 0.0 0.00 0.00 0.00 74 1013.8
20260905072003 83 215 0.0 0.0 0.00 0.00 0.00 74 1013.9
20260905071507 83 215 0.0 0.0 0.00 0.00 0.00 74 1014.1
20260905071004 83 215 0.0 0.0 0.00 0.00 0.00 74 1014.2
20260905070507 83 215 0.0 0.0 0.00 0.00 0.00 73 1014.3
20260905070022 83 215 0.0 0.0 0.00 0.00 0.00 73 1014.3
20260905065503 83 215 0.0 0.0 0.00 0.00 0.00 73 1014.2
20260905065005 83 215 0.0 0.0 0.00 0.00 0.00 73 1014.3
20260905064525 83 215 0.0 0.0 0.00 0.00 0.00 72 1014.4
20260905064003 83 215 0.0 0.0 0.00 0.00 0.00 72 1014.4
20260905063504 83 215 0.0 0.0 0.00 0.00 0.00 72 1014.4
20260905063013 83 215 0.0 0.0 0.00 0.00 0.00 71 1014.4
20260905062506 84 215 0.0 0.0 0.00 0.00 0.00 71 1014.4
20260905062005 84 215 0.0 0.0 0.00 0.00 0.00 71 1014.3
20260905061506 84 215 0.0 0.0 0.00 0.00 0.00 71 1014.3
20260905061002 84 215 0.0 0.0 0.00 0.00 0.00 70 1014.2
20260905060504 84 215 0.0 0.0 0.00 0.00 0.00 70 1014.2
20260905060010 84 215 0.0 0.0 0.00 0.00 0.00 70 1014.2
20260905055503 84 215 0.0 0.0 0.00 0.00 0.00 69 1014.2
20260905055006 85 215 0.0 0.0 0.00 0.00 0.00 70 1014.1
20260905054510 85 215 0.0 0.0 0.00 0.00 0.00 69 1014.1
20260905054008 85 215 0.0 1.0 0.00 0.00 0.00 69 1014.1
20260905053504 85 215 0.0 2.0 0.00 0.00 0.00 69 1014.0
20260905053012 85 215 0.0 2.0 0.00 0.00 0.00 69 1013.9
20260905052505 85 215 0.0 1.0 0.00 0.00 0.00 68 1013.9
20260905052006 86 215 0.0 1.0 0.00 0.00 0.00 69 1013.8
20260905051518 86 215 0.0 1.0 0.00 0.00 0.00 68 1013.8
20260905051003 86 215 0.0 1.0 0.00 0.00 0.00 68 1013.8
20260905050503 86 215 0.0 1.0 0.00 0.00 0.00 68 1013.7
20260905050013 86 213 0.0 1.0 0.00 0.00 0.00 68 1013.7
20260905045503 86 213 0.0 1.0 0.00 0.00 0.00 67 1013.8
20260905045005 87 213 0.0 2.0 0.00 0.00 0.00 67 1013.9
20260905044510 87 211 0.0 2.0 0.00 0.00 0.00 66 1013.8
20260905044005 87 228 0.0 5.0 0.00 0.00 0.00 66 1013.9
20260905043503 87 213 0.0 5.0 0.00 0.00 0.00 66 1013.8
20260905043010 87 254 0.0 5.0 0.00 0.00 0.00 66 1013.8
20260905042505 87 207 0.0 2.0 0.00 0.00 0.00 66 1013.8
20260905042004 87 209 0.0 4.0 0.00 0.00 0.00 66 1013.8
20260905041514 87 214 0.0 5.0 0.00 0.00 0.00 66 1013.7
20260905041005 87 215 1.0 5.0 0.00 0.00 0.00 66 1013.7
20260905040503 87 194 0.0 3.0 0.00 0.00 0.00 67 1013.7
20260905040018 87 175 0.0 5.0 0.00 0.00 0.00 68 1013.7
20260905035504 87 174 0.0 5.0 0.00 0.00 0.00 68 1013.7
20260905035003 88 173 0.0 4.0 0.00 0.00 0.00 69 1013.8
20260905034523 88 167 0.0 4.0 0.00 0.00 0.00 68 1013.9
20260905034007 88 167 0.0 1.0 0.00 0.00 0.00 67 1013.9